TimeEST,TemperatureF,Dew PointF,Humidity,Sea Level PressureIn,VisibilityMPH,Wind Direction,Wind SpeedMPH,Gust SpeedMPH,PrecipitationIn,Events,Conditions,WindDirDegrees,DateUTC
12:53 AM,21.0,12.9,71,30.41,10.0,Calm,Calm,-,N/A,,Clear,0,2009-01-01 05:53:00
1:53 AM,21.9,12.9,68,30.40,10.0,Calm,Calm,-,N/A,,Clear,0,2009-01-01 06:53:00
2:53 AM,21.0,12.9,71,30.40,10.0,Calm,Calm,-,N/A,,Clear,0,2009-01-01 07:53:00
3:53 AM,21.0,12.0,68,30.39,10.0,Calm,Calm,-,N/A,,Clear,0,2009-01-01 08:53:00
4:53 AM,21.0,10.9,65,30.37,10.0,East,4.6,-,N/A,,Clear,90,2009-01-01 09:53:00
5:53 AM,19.9,10.9,68,30.34,10.0,East,5.8,-,N/A,,Clear,100,2009-01-01 10:53:00
6:53 AM,19.0,10.9,71,30.33,10.0,ESE,4.6,-,N/A,,Clear,120,2009-01-01 11:53:00
7:53 AM,19.9,10.9,68,30.33,10.0,ESE,5.8,-,N/A,,Clear,110,2009-01-01 12:53:00
8:53 AM,21.0,12.0,68,30.33,10.0,SE,3.5,-,N/A,,Clear,130,2009-01-01 13:53:00
9:53 AM,24.1,12.9,62,30.32,10.0,SE,9.2,-,N/A,,Clear,130,2009-01-01 14:53:00
10:53 AM,28.0,15.1,58,30.29,10.0,SE,9.2,-,N/A,,Clear,130,2009-01-01 15:53:00
11:53 AM,32.0,14.0,48,30.22,10.0,ESE,8.1,-,N/A,,Clear,120,2009-01-01 16:53:00
12:53 PM,36.0,15.1,43,30.18,10.0,Variable,6.9,-,N/A,,Clear,0,2009-01-01 17:53:00
1:53 PM,36.0,14.0,41,30.13,10.0,South,5.8,-,N/A,,Clear,170,2009-01-01 18:53:00
2:53 PM,39.9,15.1,36,30.09,10.0,SSE,5.8,-,N/A,,Mostly Cloudy,150,2009-01-01 19:53:00
3:53 PM,41.0,14.0,33,30.04,10.0,SSE,6.9,-,N/A,,Overcast,150,2009-01-01 20:53:00
4:53 PM,42.1,14.0,32,30.02,10.0,South,6.9,-,N/A,,Overcast,180,2009-01-01 21:53:00
5:53 PM,39.9,14.0,35,29.99,10.0,Calm,Calm,-,N/A,,Clear,0,2009-01-01 22:53:00
6:53 PM,39.0,16.0,39,29.96,10.0,SSE,4.6,-,N/A,,Overcast,150,2009-01-01 23:53:00
7:53 PM,39.9,16.0,38,29.94,10.0,Calm,Calm,-,N/A,,Overcast,0,2009-01-02 00:53:00
8:53 PM,39.0,16.0,39,29.93,10.0,Calm,Calm,-,N/A,,Partly Cloudy,0,2009-01-02 01:53:00
9:53 PM,39.0,17.1,41,29.93,10.0,Calm,Calm,-,N/A,,Clear,0,2009-01-02 02:53:00
10:53 PM,42.1,18.0,38,29.93,10.0,SSW,6.9,-,N/A,,Clear,210,2009-01-02 03:53:00
11:53 PM,41.0,19.0,41,29.94,10.0,WSW,3.5,-,N/A,,Clear,240,2009-01-02 04:53:00